Kremmling, CO

9:06 AM MST on November 12, 2019 (GMT -0700)
Kremmling

Weather History for K20V - September, 2019

Change the Weather History Date:

Tuesday, September 17, 2019

  Actual Average Record
Temperature  
Mean Temperature 55 °F -  
Max Temperature 73 °F - 82 °F (2004)
Min Temperature 37 °F - 24 °F (2006)
Degree Days  
Heating Degree Days 10    
Month to date heating degree days 106  
Cooling Degree Days 0    
Month to date cooling degree days 4  
Growing Degree Days 5 (Base 50)    
Moisture  
Dew Point 37 °F    
Average Humidity 54    
Maximum Humidity 87    
Minimum Humidity 25    
Precipitation  
Precipitation 0.00 in - 0.29 in (2007)
Snow  
Snow 0.00 in - - ()
Snow Depth 0.00 in    
Sea Level Pressure  
Sea Level Pressure 30.16 in    
Wind  
Wind Speed 5 mph ()    
Max Wind Speed 28 mph    
Max Gust Speed 44 mph    
Visibility 10.0 miles    
Events Rain    
T = Trace of Precipitation, MM = Missing Value Source: Averaged Metar Reports

Daily Weather History Graph

Daily Weather History Graph

Search for Another Location

Airport or City:

Astronomy

Sep. 17, 2019 Rise Set
Actual Time 6:48 AM MDT 7:11 PM MDT
Civil Twilight 6:21 AM MDT 7:38 PM MDT
Nautical Twilight 5:49 AM MDT 8:10 PM MDT
Astronomical Twilight 5:16 AM MDT 8:42 PM MDT
Moon 9:15 PM MDT (9/17) 9:55 AM MDT (9/17)
Length of Visible Light 13h 17m
Length of Day
12h 22m
Waning Gibbous, 89% of the Moon is Illuminated
Sep 17
Waning Gibbous
Sep 21
Last Quarter
Sep 28
New
Oct 5
First Quarter
Oct 13
Full

Hourly Weather History & Observations

Time (MDT) Temp. Windchill Dew Point Humidity Pressure Visibility Wind Dir Wind Speed Gust Speed Precip Events Conditions
12:06 AM 50.0 °F - 35.6 °F 58% 30.16 in 10.0 mi ESE 3.5 mph - N/A   Clear
12:29 AM 48.2 °F - 35.6 °F 62% 30.16 in 10.0 mi Calm Calm - N/A   Clear
12:46 AM 48.2 °F - 35.6 °F 62% 30.16 in 10.0 mi SE 3.5 mph - N/A   Clear
1:06 AM 48.2 °F - 35.6 °F 62% 30.17 in 10.0 mi East 4.6 mph - N/A   Clear
1:30 AM 48.2 °F - 35.6 °F 62% 30.17 in 10.0 mi ESE 3.5 mph - N/A   Clear
1:48 AM 48.2 °F - 35.6 °F 62% 30.18 in 10.0 mi East 5.8 mph - N/A   Clear
2:06 AM 46.4 °F - 35.6 °F 66% 30.17 in 10.0 mi Calm Calm - N/A   Clear
2:30 AM 42.8 °F - 33.8 °F 70% 30.18 in 10.0 mi Calm Calm - N/A   Clear
2:48 AM 41.0 °F 37.1 °F 33.8 °F 76% 30.17 in 10.0 mi ESE 5.8 mph - N/A   Clear
3:30 AM 41.0 °F - 33.8 °F 76% 30.17 in 10.0 mi Calm Calm - N/A   Clear
3:47 AM 41.0 °F 38.0 °F 33.8 °F 76% 30.17 in 10.0 mi ESE 4.6 mph - N/A   Clear
4:30 AM 41.0 °F - 35.6 °F 81% 30.17 in 10.0 mi Calm Calm - N/A   Clear
4:48 AM 37.4 °F 34.9 °F 33.8 °F 87% 30.16 in 10.0 mi SW 3.5 mph - N/A   Clear
5:06 AM 41.0 °F - 35.6 °F 81% 30.16 in 10.0 mi Calm Calm - N/A   Clear
5:30 AM 39.2 °F - 33.8 °F 81% 30.17 in 10.0 mi Calm Calm - N/A   Clear
5:48 AM 39.2 °F - 33.8 °F 81% 30.17 in 10.0 mi Calm Calm - N/A   Clear
6:08 AM 39.2 °F - 33.8 °F 81% 30.18 in 10.0 mi Calm Calm - N/A   Clear
6:31 AM 37.4 °F - 33.8 °F 87% 30.18 in 10.0 mi Calm Calm - N/A   Clear
6:49 AM 39.2 °F - 33.8 °F 81% 30.19 in 10.0 mi Calm Calm - N/A   Scattered Clouds
7:06 AM 41.0 °F - 33.8 °F 76% 30.19 in 10.0 mi Calm Calm - N/A   Scattered Clouds
7:30 AM 41.0 °F - 33.8 °F 76% 30.19 in 10.0 mi Calm Calm - N/A   Scattered Clouds
7:48 AM 41.0 °F - 35.6 °F 81% 30.19 in 10.0 mi Calm Calm - N/A   Scattered Clouds
8:06 AM 42.8 °F - 35.6 °F 76% 30.19 in 10.0 mi Calm Calm - N/A   Clear
8:30 AM 42.8 °F - 35.6 °F 76% 30.20 in 10.0 mi Calm Calm - N/A   Clear
8:48 AM 44.6 °F - 35.6 °F 71% 30.20 in 10.0 mi Calm Calm - N/A   Scattered Clouds
9:06 AM 48.2 °F - 37.4 °F 66% 30.19 in 10.0 mi Calm Calm - N/A   Scattered Clouds
9:30 AM 48.2 °F - 37.4 °F 66% 30.20 in 10.0 mi WSW 3.5 mph - N/A   Clear
9:48 AM 53.6 °F - 37.4 °F 54% 30.19 in 10.0 mi Calm Calm - N/A   Clear
10:06 AM 55.4 °F - 37.4 °F 51% 30.19 in 10.0 mi Calm Calm - N/A   Clear
10:30 AM 59.0 °F - 37.4 °F 45% 30.17 in 10.0 mi ESE 5.8 mph - N/A   Clear
10:48 AM 64.4 °F - 37.4 °F 37% 30.16 in 10.0 mi NE 3.5 mph - N/A   Clear
11:06 AM 64.4 °F - 37.4 °F 37% 30.15 in 10.0 mi South 4.6 mph - N/A   Clear
11:30 AM 69.8 °F - 35.6 °F 28% 30.14 in 10.0 mi WSW 16.1 mph 28.8 mph N/A   Clear
11:48 AM 71.6 °F - 35.6 °F 27% 30.12 in 10.0 mi WSW 16.1 mph 26.5 mph N/A   Scattered Clouds
12:06 PM 73.4 °F - 37.4 °F 27% 30.12 in 10.0 mi WSW 20.7 mph 33.4 mph N/A   Scattered Clouds
12:30 PM 73.4 °F - 35.6 °F 25% 30.12 in 10.0 mi WSW 17.3 mph 29.9 mph N/A   Mostly Cloudy
12:48 PM 73.4 °F - 39.2 °F 29% 30.12 in 10.0 mi West 18.4 mph 28.8 mph N/A   Mostly Cloudy
1:06 PM 71.6 °F - 39.2 °F 31% 30.12 in 10.0 mi West 15.0 mph 20.7 mph N/A   Mostly Cloudy
1:30 PM 69.8 °F - 35.6 °F 28% 30.13 in 10.0 mi WSW 27.6 mph 41.4 mph N/A   Scattered Clouds
1:48 PM 60.8 °F - 41.0 °F 48% 30.14 in 7.0 mi West 20.7 mph 33.4 mph N/A   Light Drizzle
2:06 PM 69.8 °F - 39.2 °F 33% 30.12 in 10.0 mi WSW 13.8 mph 19.6 mph N/A   Scattered Clouds
2:30 PM 73.4 °F - 37.4 °F 27% 30.11 in 10.0 mi WSW 20.7 mph 31.1 mph N/A   Clear
2:48 PM 73.4 °F - 37.4 °F 27% 30.12 in 10.0 mi SW 20.7 mph 27.6 mph N/A   Scattered Clouds
3:06 PM 73.4 °F - 37.4 °F 27% 30.11 in 10.0 mi WSW 15.0 mph 29.9 mph N/A   Scattered Clouds
3:30 PM 60.8 °F - 44.6 °F 55% 30.14 in 10.0 mi SW 25.3 mph 43.7 mph N/A Rain Rain
3:48 PM 64.4 °F - 46.4 °F 52% 30.13 in 10.0 mi SW 5.8 mph - N/A   Overcast
4:06 PM 69.8 °F - 41.0 °F 35% 30.12 in 10.0 mi North 4.6 mph - N/A   Overcast
4:30 PM 73.4 °F - 41.0 °F 31% 30.12 in 10.0 mi WSW 4.6 mph - N/A   Mostly Cloudy
4:48 PM 69.8 °F - 37.4 °F 31% 30.12 in 10.0 mi SW 10.4 mph - N/A   Mostly Cloudy
5:06 PM 71.6 °F - 39.2 °F 31% 30.12 in 10.0 mi SW 10.4 mph - N/A   Overcast
5:30 PM 73.4 °F - 37.4 °F 27% 30.12 in 10.0 mi WSW 8.1 mph - N/A   Overcast
5:48 PM 69.8 °F - 35.6 °F 28% 30.12 in 10.0 mi West 16.1 mph 25.3 mph N/A   Overcast
6:06 PM 68.0 °F - 37.4 °F 33% 30.12 in 10.0 mi West 6.9 mph - N/A   Overcast
6:30 PM 68.0 °F - 42.8 °F 40% 30.13 in 10.0 mi SSW 9.2 mph 19.6 mph N/A   Light Drizzle
6:48 PM 64.4 °F - 41.0 °F 42% 30.13 in 10.0 mi SW 9.2 mph - N/A   Mostly Cloudy
7:06 PM 60.8 °F - 41.0 °F 48% 30.14 in 10.0 mi WSW 5.8 mph - N/A   Scattered Clouds
7:30 PM 60.8 °F - 39.2 °F 45% 30.14 in 10.0 mi WSW 8.1 mph - N/A   Scattered Clouds
7:48 PM 60.8 °F - 37.4 °F 42% 30.14 in 10.0 mi SW 6.9 mph - N/A   Clear
8:06 PM 59.0 °F - 39.2 °F 48% 30.16 in 10.0 mi SW 8.1 mph - N/A   Clear
8:30 PM 59.0 °F - 39.2 °F 48% 30.16 in 10.0 mi SW 4.6 mph - N/A   Clear
8:48 PM 55.4 °F - 39.2 °F 54% 30.17 in 10.0 mi Calm Calm - N/A   Clear
9:06 PM 55.4 °F - 39.2 °F 54% 30.17 in 10.0 mi Calm Calm - N/A   Clear
9:30 PM 55.4 °F - 39.2 °F 54% 30.17 in 10.0 mi WSW 4.6 mph - N/A   Clear
9:48 PM 53.6 °F - 39.2 °F 58% 30.17 in 10.0 mi WNW 4.6 mph - N/A   Clear
10:06 PM 53.6 °F - 37.4 °F 54% 30.18 in 10.0 mi NNE 3.5 mph - N/A   Clear
10:30 PM 50.0 °F - 37.4 °F 62% 30.19 in 10.0 mi Calm Calm - N/A   Clear
10:48 PM 48.2 °F - 37.4 °F 66% 30.19 in 10.0 mi ESE 4.6 mph - N/A   Clear
11:06 PM 48.2 °F - 37.4 °F 66% 30.19 in 10.0 mi NNE 3.5 mph - N/A   Clear
11:30 PM 46.4 °F - 37.4 °F 71% 30.20 in 10.0 mi Calm Calm - N/A   Clear
11:48 PM 44.6 °F - 35.6 °F 71% 30.20 in 10.0 mi Calm Calm - N/A   Clear